GEESAT-5 06

Last updated on Sun Sep 21 2025 00:02:08 GMT+0000 (Coordinated Universal Time)

1 65555U 25201F 25260.99959200 .00000005 00000+0 26294-4 0 9995 2 65555 49.9903 222.3799 0012607 343.4279 16.6247 14.87871501 1362

Satellite not in orbit

GEESAT-5 06